Tracking 25707 objects as of 29-Jun-2022
HD Live streaming from Space Station
objects crossing your sky now

LEMUR 2 MIMI1307

Track LEMUR 2 MIMI1307 now!
10-day predictions
LEMUR 2 MIMI1307 is classified as:


NORAD ID: 52769
Int'l Code: 2022-057AP
Perigee: 521.4 km
Apogee: 543.1 km
Inclination: 97.5 °
Period: 95.1 minutes
Semi major axis: 6903 km
RCS: Unknown
Launch date: May 25, 2022
Source: United States (US)
Launch site: AIR FORCE EASTERN TEST RANGE (AFETR)
aabbcc
Your satellite tracking list
Your tracking list is empty




NASA's NSSDC Master Catalog

Two Line Element Set (TLE):
1 52769U 22057AP  22179.86640776  .00005349  00000-0  30037-3 0  9997
2 52769  97.5284 294.4784 0015758 115.1747 245.1120 15.13643894  5167
Source of the keplerian elements: AFSPC